Weather in Simbukhovo

Russia / Nizhny Novgorod Oblast'     54°31′56″N   44°58′02″E
temp.,
°C
wind,
m/s
gust,
m/s
humid.,
%
clouds,
%
prec.,
mm/h
press.,
hPa
HPBL,
m
17 october, sun
sun1700:00+8sw5136299 0.0 1017513
03:00+8ssw51361100 0.0 1016551
06:00+8sw5116253 0.0 1016380
09:00+8sw586564 0.0 1017393
12:00+12sw685695 0.0 10161121
15:00+12wsw585879 0.0 10151299
18:00+8sw337599 0.0 101554
21:00+7sw238078 0.0 101545
18 october, mon
mon1800:00+5sw348260 0.0 101450
03:00+4sw338498 0.0 101447
06:00+4sw3488100 0.0 101373
09:00+6sw4778100 0.0 1013318
12:00+9wsw576185 0.0 10111015
15:00+10wsw575799 0.0 10101425
18:00+6sw3106870 0.0 1010235
21:00+7wsw4974100 0.1 1010542
19 october, tue
tue1900:00+6w4884100 0.1 1010541
03:00+3wnw2582100 0.1 1011172
06:00+3w2483100 0.0 1011141
09:00+5wnw3474100 0.0 1011388
12:00+6wnw3461100 0.0 10111091
15:00+6nw4455100 0.1 10111167
18:00+5nw2562100 0.0 1013758
21:00+2nw5898100 0.2 1013296
20 october, wed
wed2000:00+1nw369049 0.3 1014292
03:00+1nnw5787100 0.3 1015519
06:00+1nw5882100 0.0 1016636
09:00+2nnw687794 0.0 1017862
12:00+2nw6868100 0.0 10181001
15:00+2nw5767100 0.1 10191081
18:00+1wnw488880 0.3 1021529
21:00−2wnw37825 0.3 1021184
21 october, thu
thu2100:00−3w35815 0.0 1022105
03:00−3sw24895 0.0 102275
06:00−4ssw3885100 0.0 1021167
09:000ssw61261100 0.0 1019412
12:00+4ssw71354100 0.0 1016578
15:00+5ssw91757100 0.0 1013697
18:00+5sw91858100 0.0 1012652
21:00+6sw91958100 0.0 1009637